[[{"header":{"parameterUnit":"m.s-1","parameterCategory":2,"la1":30.2991,"la2":30.254,"lo1":-89.0895,"lo2":-89.0444,"dy":0.0017,"dx":0.0017,"nx":28,"ny":28,"refTime":"2024-02-03T09:00:00:Z","depth":"0","parameterNumber":2,"parameterNumberName":"U-component_of_CURRENTS"},"data":[0,0,0,0,0,0,0,0,0,0,0,0,0,0,0,0,0,0,0,0,0,0,0,0,0,0,0,0,0,0,0,0,0,0,0,0,0,0,0,0,0,0,0,0,0,0,0,0,0,0,0,0,0,0,0,0,0,0,-0.3018,-0.3016,0,-0.2849,-0.2847,-0.2845,-0.2897,-0.2901,-0.2905,-0.2909,-0.2734,-0.2726,-0.2718,0,0,0,0,0,0,0,0,0,0,0,0,0,-0.3195,-0.3193,-0.3018,-0.3016,-0.3014,-0.285,-0.2847,-0.2844,-0.2897,-0.2901,-0.2906,-0.2911,-0.2737,-0.2727,-0.2717,0,0,0,0,0,0,0,0,0,0,0,0,0,-0.3078,-0.3192,-0.3018,-0.3024,-0.3023,-0.285,-0.2847,-0.2843,-0.2896,-0.2901,-0.2907,-0.2913,-0.274,-0.2728,-0.2716,-0.2521,0,0,-0.2678,-0.2672,0,0,0,0,0,0,0,0,-0.3085,-0.3071,-0.3025,-0.3023,-0.3022,-0.2904,-0.2846,-0.2737,-0.2894,-0.294,-0.2909,-0.2916,-0.2788,-0.2772,-0.2722,-0.2513,-0.2505,-0.2676,-0.2669,-0.2664,-0.266,0,0,0,0,0,0,0,-0.3093,-0.3078,-0.2947,-0.3022,-0.302,-0.297,-0.2961,-0.2824,-0.283,-0.2936,-0.294,-0.2926,-0.2788,-0.2734,-0.2718,-0.2502,-0.2677,-0.2666,-0.2658,-0.2653,-0.2249,-0.2246,0,0,0,0,0,0,-0.3125,-0.3086,-0.2953,-0.2943,-0.3073,-0.2963,-0.2952,-0.2932,-0.2832,-0.2823,-0.2921,-0.2929,-0.2752,-0.2733,-0.2712,-0.2682,-0.2664,-0.2652,-0.2645,-0.2252,-0.2248,-0.2245,0,0,0,0,0,0,-0.3129,-0.3114,-0.296,-0.3014,-0.2992,-0.2955,-0.2931,-0.2926,-0.29,-0.2821,-0.2813,-0.2906,-0.2756,-0.273,-0.2607,-0.2668,-0.2646,-0.2635,-0.2256,-0.2251,-0.2247,-0.2487,0,0,0,0,0,0,-0.3134,-0.3116,-0.3111,-0.3016,-0.299,-0.2886,-0.2925,-0.2919,-0.2883,-0.2892,-0.2802,-0.2792,-0.2759,-0.2626,-0.2595,-0.2651,-0.2625,-0.226,-0.2254,-0.2248,-0.2484,-0.2491,-0.2498,0,0,0,0,0,-0.3141,-0.3099,-0.3111,-0.3095,-0.2984,-0.2885,-0.2866,-0.2857,-0.2877,-0.2856,-0.2791,-0.2796,-0.2568,-0.2611,-0.2576,-0.2631,-0.2263,-0.2256,-0.2249,-0.248,-0.249,-0.2498,0,0,0,0,0,0,-0.3163,-0.3097,-0.311,-0.3051,-0.2995,-0.2897,-0.2861,-0.2846,-0.2769,-0.2782,-0.2723,-0.2703,-0.2617,-0.2537,-0.2588,-0.248,-0.2425,-0.241,-0.2613,-0.262,-0.2627,-0.2764,-0.2615,0,0,0,0,0,-0.3165,-0.3119,-0.3062,-0.3007,-0.2987,-0.2922,-0.288,-0.2871,-0.2791,-0.2768,-0.2704,-0.2621,-0.254,-0.252,-0.2402,-0.2324,-0.2352,-0.2332,-0.234,-0.2348,-0.2423,-0.2475,-0.25,-0.2221,-0.2221,-0.2221,0,0,-0.3141,-0.311,-0.3076,-0.3009,-0.2961,-0.2951,-0.2911,-0.2845,-0.2863,-0.2747,-0.2719,-0.261,-0.2503,-0.2446,-0.2406,-0.2413,-0.2434,-0.2338,-0.2348,-0.242,-0.2471,-0.2501,-0.2527,-0.2216,-0.2217,-0.2218,0,0,-0.3096,-0.3062,-0.3035,-0.3012,-0.2965,-0.2934,-0.2926,-0.2841,-0.2843,-0.2755,-0.2709,-0.2653,-0.2477,-0.2488,-0.2455,-0.2406,-0.2437,-0.2339,-0.2546,-0.2595,-0.2623,-0.2649,-0.2742,-0.2774,-0.239,-0.2391,-0.2391,0,-0.3089,-0.3082,-0.3004,-0.301,-0.3033,-0.2948,-0.298,-0.2929,-0.2822,-0.2849,-0.2778,-0.2633,-0.2531,-0.2574,-0.2576,-0.2448,-0.2484,-0.2551,-0.2625,-0.2649,-0.2672,-0.2761,-0.2793,-0.2401,-0.24,-0.2399,-0.2398,0,-0.3054,-0.3084,-0.3059,-0.3078,-0.3069,-0.3058,-0.3035,-0.3017,-0.2989,-0.2971,-0.295,-0.2806,-0.2771,-0.2709,-0.2636,-0.2744,-0.272,-0.2611,-0.2654,-0.2719,-0.2802,-0.2833,-0.2417,-0.2413,-0.241,-0.2407,0,0,-0.298,-0.3039,-0.3047,-0.3143,-0.3138,-0.3139,-0.317,-0.3214,-0.3288,-0.3176,-0.3273,-0.3142,-0.3097,-0.3054,-0.296,-0.3017,-0.3183,-0.2915,-0.2913,-0.3103,-0.3351,-0.3414,-0.3452,-0.3104,-0.3109,-0.3113,-0.3361,0,-0.3015,-0.3111,-0.3119,-0.3244,-0.3318,-0.3324,-0.3388,-0.3414,-0.3393,-0.3431,-0.337,-0.3352,-0.3221,-0.321,-0.3255,-0.3149,-0.3268,-0.313,-0.3178,-0.3182,-0.3309,-0.349,-0.3484,-0.371,-0.339,-0.3395,-0.3398,0,-0.3009,-0.3114,-0.3247,-0.3456,-0.3489,-0.3537,-0.3696,-0.373,-0.3766,-0.3758,-0.377,-0.367,-0.3721,-0.3558,-0.3613,-0.3531,-0.3506,-0.345,-0.3455,-0.3472,-0.3302,-0.3575,-0.3776,-0.3855,-0.3444,-0.344,-0.3437,0,-0.3055,-0.322,-0.3366,-0.3419,-0.3588,-0.368,-0.3763,-0.3833,-0.3903,-0.3953,-0.3983,-0.4007,-0.3982,-0.3973,-0.3833,-0.3746,-0.3888,-0.3732,-0.381,-0.3813,-0.3802,-0.3796,-0.4174,-0.3867,-0.3867,-0.3866,-0.3865,0,-0.3111,-0.3234,-0.3408,-0.3491,-0.37,-0.3783,-0.3965,-0.4026,-0.4122,-0.4209,-0.4152,-0.4194,-0.408,-0.4087,-0.399,-0.4027,-0.4029,-0.3951,-0.3916,-0.3876,-0.3874,-0.3925,-0.3836,-0.3875,-0.3873,-0.3871,-0.387,0,-0.3099,-0.3209,-0.3397,-0.3631,-0.3708,-0.3841,-0.4062,-0.4174,-0.4261,-0.4359,-0.438,-0.4376,-0.4387,-0.431,-0.4278,-0.4235,-0.4233,-0.425,-0.4241,-0.4205,-0.4351,-0.4267,-0.4435,-0.4378,-0.4438,-0.4442,-0.4445,0,-0.3104,-0.3189,-0.3455,-0.3576,-0.3674,-0.3889,-0.4022,-0.4195,-0.4297,-0.4444,-0.4484,-0.4539,-0.451,-0.4558,-0.4515,-0.4518,-0.4381,-0.456,-0.4403,-0.4493,-0.4371,-0.4199,-0.4122,-0.4477,-0.448,-0.4482,-0.4484,0,-0.3113,-0.3177,-0.333,-0.3559,-0.3727,-0.3925,-0.4125,-0.4201,-0.4374,-0.4433,-0.449,-0.4484,-0.462,-0.4627,-0.4701,-0.4648,-0.4531,-0.4616,-0.47,-0.4497,-0.4339,-0.422,-0.42,-0.4506,-0.4504,-0.4503,-0.4501,-0.45,-0.3083,-0.3173,-0.3335,-0.3522,-0.3712,-0.3835,-0.3776,-0.3951,-0.4003,-0.3911,-0.4324,-0.4223,-0.4653,-0.4726,-0.476,-0.492,-0.4688,-0.4879,-0.4796,-0.4639,-0.4533,-0.462,-0.4867,-0.4867,-0.4867,-0.4867,-0.4867,0,-0.3041,-0.3122,-0.3299,-0.3443,-0.3482,-0.3638,-0.3721,-0.3489,-0.3283,-0.3497,-0.3533,-0.405,-0.4405,-0.4724,-0.5122,-0.5116,-0.4934,-0.5086,-0.4855,-0.478,-0.4913,-0.487,-0.5139,-0.5139,-0.5139,-0.5139,-0.5138,-0.5138,-0.3026,-0.3123,-0.3185,-0.3146,-0.3168,-0.2992,-0.2874,-0.2538,-0.2485,-0.24,-0.2617,-0.2933,-0.3719,-0.4919,-0.5319,-0.5254,-0.5088,-0.5021,-0.4961,-0.5096,-0.5069,-0.5044,-0.4998,-0.5289,-0.5289,-0.4785,-0.4782,-0.4779]},{"header":{"parameterUnit":"m.s-1","parameterCategory":2,"la1":30.2991,"la2":30.254,"lo1":-89.0895,"lo2":-89.0444,"dy":0.0017,"dx":0.0017,"nx":28,"ny":28,"refTime":"2024-02-03T09:00:00:Z","depth":"0","parameterNumber":3,"parameterNumberName":"V-component_of_CURRENTS"},"data":[0,0,0,0,0,0,0,0,0,0,0,0,0,0,0,0,0,0,0,0,0,0,0,0,0,0,0,0,0,0,0,0,0,0,0,0,0,0,0,0,0,0,0,0,0,0,0,0,0,0,0,0,0,0,0,0,0,0,0.0593,0.0596,0,0.0809,0.0811,0.0813,0.085,0.0849,0.0847,0.0846,0.0894,0.0897,0.09,0,0,0,0,0,0,0,0,0,0,0,0,0,0.0235,0.0241,0.0593,0.0596,0.0599,0.0808,0.0811,0.0814,0.0851,0.0849,0.0847,0.0845,0.0893,0.0897,0.09,0,0,0,0,0,0,0,0,0,0,0,0,0,0.0412,0.0243,0.0592,0.0645,0.0652,0.0808,0.0811,0.0814,0.0851,0.0849,0.0846,0.0844,0.0892,0.0896,0.09,0.0972,0,0,0.0913,0.0915,0,0,0,0,0,0,0,0,0.0402,0.0424,0.0634,0.0641,0.065,0.0803,0.0703,0.086,0.0852,0.0772,0.0846,0.0843,0.0852,0.0859,0.0903,0.0975,0.0977,0.0913,0.0916,0.0917,0.0919,0,0,0,0,0,0,0,0.0389,0.0415,0.0675,0.0637,0.0647,0.0665,0.0687,0.0733,0.0817,0.0779,0.0783,0.0812,0.0854,0.0899,0.0904,0.0977,0.0913,0.0917,0.0919,0.0921,0.1035,0.1036,0,0,0,0,0,0,0.0372,0.0405,0.0669,0.0682,0.0521,0.0673,0.0698,0.0754,0.082,0.0831,0.0814,0.0813,0.0893,0.0899,0.0906,0.0951,0.0917,0.0921,0.0924,0.1035,0.1035,0.1036,0,0,0,0,0,0,0.0363,0.0394,0.066,0.0548,0.0583,0.0682,0.0744,0.0759,0.0795,0.085,0.0855,0.0833,0.0892,0.09,0.0939,0.0954,0.0923,0.0927,0.1034,0.1035,0.1036,0.1069,0,0,0,0,0,0,0.0353,0.039,0.0419,0.0548,0.0589,0.0734,0.0747,0.0765,0.0818,0.0819,0.0868,0.0871,0.089,0.0933,0.0943,0.0959,0.093,0.1033,0.1034,0.1035,0.1067,0.107,0.1074,0,0,0,0,0,0.0339,0.0392,0.042,0.0451,0.0628,0.0735,0.0757,0.0816,0.0821,0.0838,0.0873,0.0869,0.0946,0.0938,0.095,0.0967,0.1033,0.1034,0.1035,0.1065,0.107,0.1073,0,0,0,0,0,0,0.0252,0.0406,0.0437,0.0534,0.0616,0.0741,0.077,0.0816,0.0867,0.0854,0.0895,0.0902,0.0929,0.0949,0.0939,0.0999,0.0982,0.0986,0.1,0.1005,0.1008,0.102,0.0933,0,0,0,0,0,0.0249,0.0322,0.0456,0.0522,0.0563,0.0664,0.0714,0.0757,0.0826,0.0846,0.0887,0.0919,0.0952,0.0976,0.0997,0.1056,0.1098,0.1067,0.107,0.1073,0.1089,0.1155,0.1167,0.104,0.104,0.104,0,0,0.0231,0.0324,0.0364,0.0506,0.0572,0.0628,0.0686,0.0756,0.0804,0.0842,0.0899,0.0926,0.0963,0.101,0.1026,0.103,0.1137,0.1075,0.1077,0.1092,0.1158,0.1171,0.1182,0.1041,0.1041,0.1041,0,0,0.0196,0.0312,0.0335,0.0411,0.0513,0.0597,0.0612,0.0734,0.0784,0.0855,0.0882,0.0932,0.0988,0.1037,0.1063,0.1105,0.1137,0.1094,0.1147,0.1211,0.1223,0.1234,0.1332,0.1351,0.1115,0.1115,0.1115,0,0.0155,0.022,0.0352,0.0386,0.0448,0.0574,0.0601,0.0692,0.0807,0.0873,0.0855,0.0989,0.1005,0.1106,0.111,0.1115,0.1165,0.1131,0.1218,0.1229,0.124,0.1337,0.1358,0.1117,0.1116,0.1116,0.1116,0,0.0121,0.0176,0.0198,0.0293,0.0384,0.0432,0.0581,0.0666,0.0744,0.0841,0.0952,0.101,0.1096,0.1105,0.112,0.1215,0.1233,0.1201,0.1212,0.1255,0.1355,0.1376,0.1119,0.1118,0.1118,0.1117,0,0,0.0017,0.0143,0.0146,0.0171,0.0341,0.0408,0.053,0.0688,0.0784,0.0891,0.1011,0.1088,0.1152,0.1185,0.1229,0.1297,0.141,0.1285,0.1288,0.1391,0.1589,0.1725,0.1761,0.1393,0.1396,0.1398,0.164,0,-0.0069,-0.007,0.0069,0.011,0.0125,0.0336,0.0453,0.0625,0.078,0.0931,0.1061,0.1158,0.1177,0.1218,0.1299,0.137,0.1462,0.135,0.1524,0.1531,0.1653,0.1789,0.1979,0.2221,0.1661,0.1665,0.1667,0,-0.0165,-0.0146,-0.0153,0.0016,0.0057,0.0131,0.0378,0.0502,0.078,0.0905,0.1079,0.1194,0.1352,0.1318,0.1534,0.1463,0.1532,0.159,0.1599,0.1731,0.1707,0.2081,0.228,0.2654,0.1699,0.1697,0.1695,0,-0.037,-0.0278,-0.0295,-0.0248,-0.0044,0.0039,0.0177,0.0465,0.0605,0.0882,0.1009,0.1234,0.1329,0.1466,0.1631,0.1578,0.1856,0.1789,0.1999,0.2009,0.2212,0.2235,0.2803,0.1933,0.1932,0.1931,0.1931,0,-0.0515,-0.0523,-0.0404,-0.0413,-0.0373,-0.0137,0.0002,0.019,0.0487,0.0682,0.0951,0.1134,0.136,0.1571,0.1683,0.1957,0.1912,0.2066,0.21,0.2231,0.2253,0.2613,0.2673,0.194,0.1938,0.1937,0.1935,0,-0.0744,-0.0676,-0.069,-0.0532,-0.0488,-0.0461,-0.0171,-0.0037,0.0274,0.0536,0.0622,0.1044,0.1372,0.1637,0.1891,0.2037,0.2448,0.2338,0.2509,0.256,0.3099,0.3147,0.3524,0.3592,0.2643,0.2648,0.2652,0,-0.0862,-0.0915,-0.085,-0.086,-0.0799,-0.0696,-0.0591,-0.0242,-0.0043,0.0501,0.0614,0.1037,0.1416,0.1923,0.2247,0.2595,0.2681,0.2931,0.2861,0.3241,0.3319,0.3235,0.3253,0.3153,0.3161,0.3168,0.3173,0,-0.1087,-0.1077,-0.1089,-0.1131,-0.1081,-0.0947,-0.0744,-0.0624,-0.0125,0.0204,0.0694,0.105,0.1674,0.2298,0.2789,0.2917,0.319,0.3076,0.3438,0.3777,0.3754,0.3797,0.2887,0.3232,0.3226,0.3222,0.3218,0.3216,-0.1257,-0.1337,-0.1353,-0.1364,-0.1306,-0.1131,-0.0993,-0.0719,-0.0357,0.0259,0.0646,0.1333,0.2381,0.3154,0.3322,0.3943,0.3621,0.4145,0.4177,0.4062,0.4143,0.3386,0.3766,0.3764,0.3761,0.3759,0.3757,0,-0.1437,-0.1489,-0.1549,-0.1491,-0.1384,-0.1287,-0.1017,-0.0819,-0.043,0.0205,0.076,0.2169,0.3209,0.3976,0.4942,0.5162,0.4954,0.5232,0.5226,0.5181,0.4577,0.4626,0.525,0.525,0.525,0.5249,0.5249,0.5248,-0.1538,-0.1652,-0.1654,-0.1535,-0.1434,-0.1194,-0.102,-0.0829,-0.0418,0.0538,0.1429,0.2114,0.3524,0.5468,0.6369,0.627,0.6316,0.6223,0.6182,0.5917,0.5819,0.5725,0.5802,0.6662,0.6664,0.6776,0.6779,0.6782]}],[{"header":{"parameterUnit":"m.s-1","parameterCategory":2,"la1":30.2991,"la2":30.254,"lo1":-89.0895,"lo2":-89.0444,"dy":0.0017,"dx":0.0017,"nx":28,"ny":28,"refTime":"2024-02-03T09:00:00:Z","depth":"2","parameterNumber":2,"parameterNumberName":"U-component_of_CURRENTS"},"data":[0,0,0,0,0,0,0,0,0,0,0,0,0,0,0,0,0,0,0,0,0,0,0,0,0,0,0,0,0,0,0,0,0,0,0,0,0,0,0,0,0,0,0,0,0,0,0,0,0,0,0,0,0,0,0,0,0,0,-0.2988,-0.2987,0,-0.2819,-0.2817,-0.2815,-0.2868,-0.2872,-0.2876,-0.2879,-0.2705,-0.2697,-0.2689,0,0,0,0,0,0,0,0,0,0,0,0,0,-0.3167,-0.3165,-0.2988,-0.2987,-0.2985,-0.282,-0.2817,-0.2814,-0.2867,-0.2872,-0.2877,-0.2881,-0.2708,-0.2698,-0.2688,0,0,0,0,0,0,0,0,0,0,0,0,0,-0.305,-0.3164,-0.2989,-0.2994,-0.2993,-0.282,-0.2817,-0.2813,-0.2866,-0.2872,-0.2878,-0.2883,-0.2711,-0.2699,-0.2687,-0.2492,0,0,-0.2649,-0.2644,0,0,0,0,0,0,0,0,-0.3057,-0.3043,-0.2995,-0.2994,-0.2992,-0.2874,-0.2816,-0.2707,-0.2864,-0.291,-0.2879,-0.2886,-0.2759,-0.2743,-0.2693,-0.2483,-0.2476,-0.2648,-0.264,-0.2635,-0.2631,0,0,0,0,0,0,0,-0.3065,-0.3049,-0.2918,-0.2993,-0.2991,-0.294,-0.2932,-0.2795,-0.28,-0.2907,-0.2911,-0.2896,-0.2759,-0.2705,-0.2689,-0.2473,-0.2648,-0.2637,-0.2629,-0.2625,-0.2221,-0.2218,0,0,0,0,0,0,-0.3096,-0.3057,-0.2923,-0.2913,-0.3044,-0.2933,-0.2923,-0.2903,-0.2802,-0.2794,-0.2892,-0.29,-0.2723,-0.2704,-0.2683,-0.2653,-0.2635,-0.2623,-0.2616,-0.2224,-0.222,-0.2217,0,0,0,0,0,0,-0.31,-0.3085,-0.293,-0.2985,-0.2963,-0.2926,-0.2901,-0.2896,-0.2871,-0.2792,-0.2784,-0.2877,-0.2727,-0.2701,-0.2578,-0.264,-0.2618,-0.2606,-0.2228,-0.2223,-0.2218,-0.2459,0,0,0,0,0,0,-0.3106,-0.3087,-0.3082,-0.2987,-0.2961,-0.2856,-0.2896,-0.2889,-0.2853,-0.2863,-0.2773,-0.2763,-0.273,-0.2597,-0.2566,-0.2622,-0.2597,-0.2232,-0.2226,-0.222,-0.2455,-0.2462,-0.2469,0,0,0,0,0,-0.3113,-0.307,-0.3082,-0.3067,-0.2955,-0.2855,-0.2835,-0.2827,-0.2847,-0.2826,-0.2762,-0.2767,-0.2539,-0.2582,-0.2547,-0.2602,-0.2235,-0.2227,-0.222,-0.2452,-0.2461,-0.2469,0,0,0,0,0,0,-0.3135,-0.3068,-0.3081,-0.3022,-0.2965,-0.2867,-0.2831,-0.2816,-0.2739,-0.2753,-0.2694,-0.2674,-0.2589,-0.2509,-0.256,-0.2452,-0.2396,-0.2381,-0.2584,-0.2591,-0.2599,-0.2735,-0.2586,0,0,0,0,0,-0.3137,-0.309,-0.3032,-0.2978,-0.2958,-0.2892,-0.285,-0.2841,-0.2761,-0.2738,-0.2674,-0.2592,-0.2511,-0.2491,-0.2374,-0.2295,-0.2324,-0.2303,-0.2311,-0.2319,-0.2394,-0.2447,-0.2472,-0.2192,-0.2193,-0.2193,0,0,-0.3113,-0.3081,-0.3047,-0.298,-0.2931,-0.292,-0.2881,-0.2815,-0.2833,-0.2718,-0.269,-0.258,-0.2474,-0.2417,-0.2377,-0.2384,-0.2405,-0.231,-0.232,-0.2392,-0.2443,-0.2473,-0.2499,-0.2187,-0.2188,-0.2189,0,0,-0.3067,-0.3033,-0.3005,-0.2982,-0.2935,-0.2904,-0.2896,-0.281,-0.2812,-0.2725,-0.2679,-0.2624,-0.2448,-0.2459,-0.2426,-0.2377,-0.2408,-0.231,-0.2516,-0.2566,-0.2595,-0.262,-0.2712,-0.2744,-0.2361,-0.2362,-0.2362,0,-0.306,-0.3052,-0.2974,-0.298,-0.3002,-0.2918,-0.2949,-0.2898,-0.2791,-0.2817,-0.2747,-0.2603,-0.2502,-0.2544,-0.2547,-0.2419,-0.2454,-0.2522,-0.2596,-0.2621,-0.2644,-0.2731,-0.2763,-0.2372,-0.2371,-0.237,-0.2369,0,-0.3023,-0.3053,-0.3028,-0.3047,-0.3037,-0.3026,-0.3003,-0.2984,-0.2957,-0.2939,-0.2918,-0.2775,-0.2741,-0.2679,-0.2607,-0.2715,-0.2691,-0.2582,-0.2626,-0.269,-0.2772,-0.2803,-0.2388,-0.2384,-0.2381,-0.2378,0,0,-0.295,-0.3007,-0.3015,-0.311,-0.3105,-0.3105,-0.3136,-0.3179,-0.3253,-0.3142,-0.3238,-0.3109,-0.3065,-0.3023,-0.2929,-0.2987,-0.3154,-0.2887,-0.2884,-0.3073,-0.3322,-0.338,-0.3418,-0.3076,-0.3081,-0.3085,-0.333,0,-0.2984,-0.3078,-0.3086,-0.3209,-0.3282,-0.3288,-0.3352,-0.3377,-0.3356,-0.3393,-0.3334,-0.3316,-0.3188,-0.3177,-0.3225,-0.3119,-0.3239,-0.3102,-0.3149,-0.3153,-0.3276,-0.3456,-0.2934,-0.3115,-0.3359,-0.3364,-0.3367,0,-0.2977,-0.308,-0.3212,-0.3419,-0.3451,-0.3499,-0.3656,-0.3689,-0.3724,-0.3716,-0.3729,-0.3631,-0.3683,-0.3523,-0.358,-0.3499,-0.3476,-0.3421,-0.3426,-0.3439,-0.3269,-0.307,-0.3159,-0.3417,-0.3413,-0.3409,-0.3406,0,-0.3022,-0.3185,-0.333,-0.3382,-0.3549,-0.364,-0.3722,-0.3791,-0.386,-0.3909,-0.3939,-0.3964,-0.3941,-0.3934,-0.3796,-0.3712,-0.3853,-0.37,-0.3776,-0.3778,-0.3329,-0.3285,-0.3838,-0.3838,-0.3837,-0.3836,-0.3836,0,-0.3077,-0.3199,-0.3371,-0.3454,-0.366,-0.3743,-0.3922,-0.3982,-0.4076,-0.4162,-0.4106,-0.4149,-0.4037,-0.4045,-0.3951,-0.3989,-0.3993,-0.3916,-0.3881,-0.3391,-0.3352,-0.3572,-0.3538,-0.3846,-0.3844,-0.3842,-0.384,0,-0.3065,-0.3174,-0.336,-0.3592,-0.3668,-0.38,-0.4017,-0.4127,-0.4214,-0.4311,-0.4332,-0.4329,-0.4341,-0.4265,-0.4236,-0.4193,-0.4194,-0.4209,-0.3684,-0.359,-0.4064,-0.4037,-0.4385,-0.439,-0.4394,-0.4398,-0.4401,0,-0.307,-0.3154,-0.3418,-0.3538,-0.3636,-0.3847,-0.3979,-0.4148,-0.4249,-0.4396,-0.4435,-0.4491,-0.4434,-0.4481,-0.4283,-0.424,-0.4348,-0.3975,-0.3752,-0.4209,-0.4138,-0.4104,-0.4072,-0.3219,-0.3212,-0.3206,-0.3202,0,-0.3079,-0.3143,-0.3294,-0.3522,-0.3688,-0.3883,-0.408,-0.4154,-0.4326,-0.4345,-0.4404,-0.4372,-0.4373,-0.4045,-0.4053,-0.3957,-0.3935,-0.3879,-0.4455,-0.3207,-0.3141,-0.3061,-0.3061,-0.3151,-0.3156,-0.3159,-0.3162,-0.3164,-0.3049,-0.3138,-0.33,-0.3486,-0.3674,-0.3795,-0.3734,-0.3839,-0.3843,-0.3577,-0.4038,-0.3674,-0.3882,-0.3404,-0.3453,-0.3424,-0.3679,-0.3581,-0.3582,-0.3593,-0.3461,-0.341,-0.3448,-0.3454,-0.346,-0.3465,-0.3469,0,-0.2903,-0.3089,-0.3264,-0.3408,-0.3284,-0.3601,-0.3681,-0.3385,-0.3051,-0.2937,-0.2785,-0.2585,-0.2498,-0.269,-0.2496,-0.2764,-0.253,-0.2808,-0.2412,-0.2464,-0.2511,-0.2308,-0.1998,-0.1995,-0.1992,-0.1989,0,0,-0.2862,-0.2893,-0.2952,-0.2805,-0.2939,-0.2551,-0.2425,-0.2266,-0.199,-0.1459,-0.1181,-0.1429,-0.2072,-0.1698,-0.1987,-0.1885,-0.2037,-0.1784,-0.2917,-0.2444,-0.2481,-0.291,-0.2658,0,0,0,0,0]},{"header":{"parameterUnit":"m.s-1","parameterCategory":2,"la1":30.2991,"la2":30.254,"lo1":-89.0895,"lo2":-89.0444,"dy":0.0017,"dx":0.0017,"nx":28,"ny":28,"refTime":"2024-02-03T09:00:00:Z","depth":"2","parameterNumber":3,"parameterNumberName":"V-component_of_CURRENTS"},"data":[0,0,0,0,0,0,0,0,0,0,0,0,0,0,0,0,0,0,0,0,0,0,0,0,0,0,0,0,0,0,0,0,0,0,0,0,0,0,0,0,0,0,0,0,0,0,0,0,0,0,0,0,0,0,0,0,0,0,0.058,0.0583,0,0.0795,0.0798,0.08,0.0837,0.0836,0.0834,0.0833,0.0882,0.0884,0.0887,0,0,0,0,0,0,0,0,0,0,0,0,0,0.0223,0.0229,0.058,0.0583,0.0586,0.0795,0.0798,0.08,0.0837,0.0836,0.0834,0.0832,0.0881,0.0884,0.0887,0,0,0,0,0,0,0,0,0,0,0,0,0,0.04,0.0231,0.058,0.0632,0.0639,0.0794,0.0798,0.0801,0.0838,0.0836,0.0833,0.0831,0.088,0.0884,0.0888,0.096,0,0,0.09,0.0902,0,0,0,0,0,0,0,0,0.039,0.0412,0.0621,0.0629,0.0637,0.079,0.069,0.0847,0.0838,0.0759,0.0833,0.083,0.0839,0.0847,0.089,0.0962,0.0964,0.0901,0.0903,0.0905,0.0906,0,0,0,0,0,0,0,0.0377,0.0403,0.0662,0.0625,0.0634,0.0652,0.0674,0.0721,0.0804,0.0766,0.077,0.0799,0.0841,0.0886,0.0891,0.0965,0.0901,0.0904,0.0907,0.0908,0.1023,0.1024,0,0,0,0,0,0,0.036,0.0393,0.0656,0.0669,0.0508,0.0661,0.0685,0.0741,0.0807,0.0818,0.0801,0.08,0.0881,0.0886,0.0893,0.0939,0.0905,0.0909,0.0911,0.1023,0.1023,0.1024,0,0,0,0,0,0,0.0351,0.0382,0.0647,0.0535,0.0571,0.0669,0.0731,0.0746,0.0782,0.0837,0.0842,0.082,0.0879,0.0887,0.0927,0.0941,0.0911,0.0914,0.1022,0.1023,0.1024,0.1057,0,0,0,0,0,0,0.0341,0.0378,0.0407,0.0536,0.0577,0.0721,0.0734,0.0752,0.0805,0.0806,0.0855,0.0858,0.0878,0.0921,0.0931,0.0947,0.0918,0.1021,0.1022,0.1023,0.1055,0.1059,0.1062,0,0,0,0,0,0.0328,0.038,0.0408,0.0439,0.0616,0.0722,0.0744,0.0803,0.0808,0.0825,0.086,0.0856,0.0933,0.0926,0.0937,0.0954,0.1021,0.1022,0.1023,0.1053,0.1058,0.1062,0,0,0,0,0,0,0.0241,0.0394,0.0425,0.0521,0.0603,0.0728,0.0757,0.0803,0.0854,0.0841,0.0882,0.0889,0.0916,0.0937,0.0927,0.0987,0.097,0.0974,0.0988,0.0993,0.0996,0.1008,0.0921,0,0,0,0,0,0.0238,0.031,0.0443,0.051,0.055,0.0651,0.0701,0.0744,0.0813,0.0833,0.0875,0.0907,0.0939,0.0964,0.0985,0.1044,0.1086,0.1055,0.1058,0.1061,0.1077,0.1144,0.1155,0.1028,0.1028,0.1028,0,0,0.0219,0.0312,0.0351,0.0494,0.0559,0.0615,0.0673,0.0743,0.079,0.0829,0.0886,0.0913,0.0951,0.0998,0.1014,0.1018,0.1125,0.1063,0.1065,0.108,0.1146,0.1159,0.117,0.1029,0.1029,0.1029,0,0,0.0184,0.03,0.0322,0.0398,0.0501,0.0584,0.0599,0.0721,0.0771,0.0842,0.0869,0.092,0.0976,0.1025,0.1051,0.1093,0.1125,0.1082,0.1136,0.12,0.1212,0.1222,0.1319,0.1338,0.1103,0.1103,0.1103,0,0.0143,0.0208,0.034,0.0373,0.0435,0.0561,0.0588,0.0679,0.0794,0.0859,0.0842,0.0977,0.0993,0.1094,0.1099,0.1103,0.1154,0.1119,0.1207,0.1218,0.1229,0.1325,0.1346,0.1105,0.1105,0.1105,0.1105,0,0.0109,0.0164,0.0186,0.0281,0.0372,0.0419,0.0568,0.0653,0.0731,0.0828,0.0939,0.0998,0.1084,0.1093,0.1109,0.1203,0.1221,0.119,0.1201,0.1244,0.1343,0.1363,0.1108,0.1107,0.1106,0.1106,0,0,0.0005,0.0131,0.0134,0.0158,0.0329,0.0395,0.0517,0.0674,0.077,0.0878,0.0997,0.1075,0.1139,0.1173,0.1217,0.1286,0.1399,0.1274,0.1276,0.1379,0.1577,0.1708,0.1743,0.1382,0.1385,0.1388,0.1627,0,-0.0081,-0.0081,0.0057,0.0098,0.0113,0.0322,0.044,0.0611,0.0765,0.0915,0.1046,0.1143,0.1164,0.1205,0.1287,0.1358,0.145,0.1339,0.1512,0.1519,0.1636,0.177,0.1373,0.1564,0.1648,0.1651,0.1654,0,-0.0177,-0.0157,-0.0164,0.0003,0.0044,0.0117,0.0363,0.0486,0.0763,0.0887,0.1061,0.1177,0.1335,0.1304,0.152,0.1449,0.1519,0.1578,0.1587,0.1714,0.1689,0.1527,0.1599,0.1689,0.1686,0.1683,0.1681,0,-0.0381,-0.029,-0.0306,-0.026,-0.0057,0.0025,0.0162,0.0449,0.0587,0.0864,0.0989,0.1215,0.131,0.1448,0.1614,0.1563,0.184,0.1775,0.1981,0.1991,0.1693,0.1674,0.192,0.1919,0.1919,0.1918,0.1918,0,-0.0525,-0.0534,-0.0416,-0.0424,-0.0386,-0.0151,-0.0014,0.0173,0.0468,0.0662,0.0931,0.1112,0.134,0.1551,0.1665,0.1937,0.1893,0.2047,0.208,0.17,0.168,0.1796,0.1778,0.1927,0.1925,0.1924,0.1922,0,-0.0754,-0.0686,-0.0701,-0.0544,-0.05,-0.0475,-0.0187,-0.0054,0.0255,0.0514,0.06,0.1021,0.1347,0.1613,0.1867,0.2013,0.2228,0.2312,0.1897,0.1882,0.2324,0.2305,0.26,0.2607,0.2613,0.2618,0.2622,0,-0.0871,-0.0925,-0.086,-0.0871,-0.081,-0.0709,-0.0605,-0.0259,-0.0063,0.0478,0.059,0.1011,0.1355,0.1859,0.2008,0.2304,0.2407,0.2286,0.2139,0.2402,0.2403,0.2374,0.2348,0.1741,0.1738,0.1735,0.1733,0,-0.1096,-0.1086,-0.1099,-0.1141,-0.1092,-0.0961,-0.0761,-0.0642,-0.0146,0.0137,0.0625,0.0947,0.1416,0.1638,0.2053,0.2152,0.222,0.2257,0.2599,0.1678,0.1625,0.1616,0.1611,0.1708,0.171,0.1712,0.1714,0.1715,-0.1266,-0.1346,-0.1363,-0.1375,-0.1318,-0.1145,-0.1009,-0.0802,-0.0494,-0.0113,0.0328,0.0666,0.1148,0.1471,0.1793,0.2002,0.2114,0.2165,0.2157,0.2156,0.2062,0.2027,0.2169,0.2173,0.2178,0.2181,0.2185,0,-0.1449,-0.1498,-0.1558,-0.1501,-0.1455,-0.13,-0.1033,-0.0881,-0.0622,-0.0487,-0.0166,0.0261,0.0564,0.1081,0.1298,0.1701,0.1483,0.1829,0.1448,0.147,0.149,0.1349,0.1274,0.1274,0.1274,0.1274,0,0,-0.155,-0.1675,-0.1677,-0.1631,-0.1518,-0.1412,-0.1242,-0.1015,-0.0915,-0.0746,-0.0657,-0.0523,0.0372,0.0412,0.0864,0.1054,0.1126,0.1003,0.166,0.1162,0.1176,0.1592,0.1393,0,0,0,0,0]}],[{"header":{"parameterUnit":"m.s-1","parameterCategory":2,"la1":30.2991,"la2":30.254,"lo1":-89.0895,"lo2":-89.0444,"dy":0.0017,"dx":0.0017,"nx":28,"ny":28,"refTime":"2024-02-03T09:00:00:Z","depth":"4","parameterNumber":2,"parameterNumberName":"U-component_of_CURRENTS"},"data":[0,0,0,0,0,0,0,0,0,0,0,0,0,0,0,0,0,0,0,0,0,0,0,0,0,0,0,0,0,0,0,0,0,0,0,0,0,0,0,0,0,0,0,0,0,0,0,0,0,0,0,0,0,0,0,0,0,0,-0.0694,-0.0694,0,-0.0649,-0.0649,-0.0648,-0.072,-0.0723,-0.0726,-0.0729,-0.0619,-0.0613,-0.0608,0,0,0,0,0,0,0,0,0,0,0,0,0,-0.0737,-0.0736,-0.0694,-0.0694,-0.0694,-0.065,-0.0649,-0.0647,-0.072,-0.0723,-0.0727,-0.073,-0.0621,-0.0614,-0.0607,0,0,0,0,0,0,0,0,0,0,0,0,0,-0.0704,-0.0736,-0.0694,-0.0728,-0.0731,-0.065,-0.0648,-0.0647,-0.0719,-0.0724,-0.0728,-0.0732,-0.0623,-0.0615,-0.0606,-0.0465,0,0,-0.058,-0.0576,0,0,0,0,0,0,0,0,-0.0706,-0.0701,-0.0723,-0.0726,-0.0729,-0.0699,-0.0624,-0.0585,-0.0718,-0.0719,-0.0729,-0.0734,-0.0639,-0.063,-0.0606,-0.046,-0.0455,-0.0579,-0.0574,-0.0571,-0.0568,0,0,0,0,0,0,0,-0.0708,-0.0703,-0.0672,-0.0723,-0.0726,-0.071,-0.0711,-0.0616,-0.065,-0.0719,-0.0725,-0.0727,-0.0641,-0.0614,-0.0603,-0.0454,-0.058,-0.0572,-0.0567,-0.0564,-0.0326,-0.0325,0,0,0,0,0,0,-0.0723,-0.0705,-0.0673,-0.0671,-0.0733,-0.0707,-0.0707,-0.07,-0.0652,-0.0651,-0.0723,-0.073,-0.0626,-0.0613,-0.06,-0.0621,-0.0571,-0.0563,-0.0558,-0.0327,-0.0326,-0.0325,0,0,0,0,0,0,-0.0724,-0.072,-0.0675,-0.0692,-0.0686,-0.0703,-0.0694,-0.0697,-0.0708,-0.0657,-0.0655,-0.0736,-0.0629,-0.0612,-0.0555,-0.0611,-0.0559,-0.0551,-0.0329,-0.0327,-0.0325,-0.0541,0,0,0,0,0,0,-0.0725,-0.072,-0.0718,-0.0692,-0.0686,-0.0674,-0.069,-0.0693,-0.0702,-0.0712,-0.0665,-0.0658,-0.0631,-0.0568,-0.0547,-0.0598,-0.0544,-0.033,-0.0328,-0.0326,-0.0535,-0.0546,-0.0556,0,0,0,0,0,-0.0727,-0.0706,-0.0718,-0.0715,-0.0683,-0.0675,-0.0671,-0.0693,-0.0699,-0.0715,-0.0676,-0.0662,-0.054,-0.0559,-0.0534,-0.0586,-0.0331,-0.0329,-0.0326,-0.053,-0.0544,-0.0556,0,0,0,0,0,0,-0.0705,-0.0711,-0.0724,-0.0703,-0.0715,-0.0692,-0.0693,-0.0694,-0.0669,-0.0682,-0.0629,-0.0618,-0.0593,-0.0522,-0.0545,-0.05,-0.0437,-0.0429,-0.06,-0.0612,-0.0623,-0.067,-0.0537,0,0,0,0,0,-0.0701,-0.07,-0.0706,-0.0689,-0.0702,-0.0695,-0.069,-0.0712,-0.0687,-0.0684,-0.0654,-0.0599,-0.0546,-0.0533,-0.0467,-0.0422,-0.0408,-0.0434,-0.0445,-0.0455,-0.0469,-0.0479,-0.0495,-0.0316,-0.0316,-0.0316,0,0,-0.0675,-0.0686,-0.0678,-0.0687,-0.0692,-0.0746,-0.0704,-0.0718,-0.077,-0.0664,-0.0702,-0.0625,-0.0533,-0.0519,-0.0501,-0.0482,-0.0504,-0.0452,-0.0463,-0.047,-0.0478,-0.0497,-0.0513,-0.0314,-0.0314,-0.0314,0,0,-0.0681,-0.0652,-0.0693,-0.0724,-0.0764,-0.0764,-0.0779,-0.0784,-0.08,-0.0796,-0.0744,-0.0701,-0.0618,-0.0592,-0.0556,-0.0559,-0.0549,-0.0532,-0.0647,-0.0658,-0.0676,-0.069,-0.0749,-0.0768,-0.0554,-0.0554,-0.0555,0,-0.0658,-0.0727,-0.0698,-0.0781,-0.0821,-0.0791,-0.0874,-0.0869,-0.0859,-0.0856,-0.0847,-0.0732,-0.0666,-0.0645,-0.0668,-0.0597,-0.061,-0.0629,-0.0684,-0.0697,-0.0709,-0.0765,-0.0782,-0.0564,-0.0563,-0.0562,-0.0561,0,-0.0743,-0.0808,-0.0829,-0.0938,-0.0964,-0.1012,-0.1035,-0.1048,-0.1043,-0.1034,-0.1006,-0.0908,-0.085,-0.0821,-0.0755,-0.0787,-0.0776,-0.0699,-0.0682,-0.0743,-0.0795,-0.081,-0.0579,-0.0575,-0.0572,-0.057,0,0,-0.0672,-0.0858,-0.0877,-0.0973,-0.1061,-0.1086,-0.1158,-0.1196,-0.1234,-0.1204,-0.1242,-0.1144,-0.1075,-0.1024,-0.0931,-0.0939,-0.105,-0.0875,-0.0871,-0.0989,-0.1129,-0.1127,-0.1142,-0.1,-0.1002,-0.1004,-0.1155,0,-0.0763,-0.0957,-0.1023,-0.1188,-0.1281,-0.1298,-0.1365,-0.1386,-0.1375,-0.1394,-0.1293,-0.1283,-0.1159,-0.1146,-0.113,-0.1042,-0.1088,-0.1019,-0.1,-0.1001,-0.1038,-0.1157,-0.1011,-0.1165,-0.1169,-0.1171,-0.1173,0,-0.0852,-0.0975,-0.1165,-0.1338,-0.1378,-0.1462,-0.1539,-0.1597,-0.1594,-0.1592,-0.1552,-0.1474,-0.1449,-0.1346,-0.1299,-0.1265,-0.1229,-0.1177,-0.118,-0.111,-0.1025,-0.1067,-0.1198,-0.1196,-0.1194,-0.1193,-0.1191,0,-0.0836,-0.1067,-0.1221,-0.1286,-0.1466,-0.1535,-0.1607,-0.1641,-0.1692,-0.1718,-0.1771,-0.1684,-0.1702,-0.1599,-0.149,-0.1413,-0.147,-0.1342,-0.1322,-0.1323,-0.1186,-0.1167,-0.1365,-0.1365,-0.1364,-0.1364,-0.1363,0,-0.0897,-0.102,-0.1232,-0.1316,-0.1447,-0.1572,-0.1684,-0.1728,-0.1828,-0.1894,-0.1868,-0.1924,-0.1775,-0.1764,-0.1604,-0.1541,-0.1571,-0.1389,-0.1369,-0.1273,-0.1262,-0.1201,-0.118,-0.137,-0.1368,-0.1367,-0.1366,0,-0.0848,-0.1007,-0.1169,-0.1386,-0.1444,-0.1522,-0.1725,-0.1776,-0.1937,-0.2037,-0.2076,-0.2155,-0.217,-0.2039,-0.1933,-0.175,-0.1638,-0.162,-0.162,-0.1588,-0.1457,-0.1444,-0.1598,-0.1599,-0.16,-0.1601,-0.1602,0,-0.0853,-0.0936,-0.1158,-0.1194,-0.1292,-0.1446,-0.1511,-0.1745,-0.182,-0.2151,-0.2174,-0.2347,-0.2342,-0.2219,-0.2086,-0.1885,-0.1804,-0.1749,-0.1508,-0.152,-0.1485,-0.147,-0.1456,-0.1604,-0.1604,-0.1604,-0.1605,0,-0.0799,-0.0868,-0.0965,-0.1038,-0.1128,-0.1241,-0.1397,-0.1501,-0.1784,-0.2025,-0.2229,-0.2264,-0.2345,-0.2217,-0.2148,-0.1953,-0.1751,-0.1757,-0.1749,-0.1523,-0.1529,-0.1489,-0.1474,-0.1608,-0.1608,-0.1608,-0.1607,0,-0.0694,-0.0701,-0.0777,-0.0814,-0.0887,-0.0929,-0.1112,-0.13,-0.1482,-0.193,-0.2018,-0.22,-0.2386,-0.2269,-0.2161,-0.2031,-0.1909,-0.1703,-0.1695,-0.169,-0.1629,-0.1644,-0.1793,0,0,0,0,0,-0.0576,-0.0515,-0.0529,-0.0552,-0.0608,-0.0645,-0.0931,-0.1148,-0.1551,-0.1646,-0.185,-0.193,-0.1969,-0.2054,-0.1907,-0.206,-0.1808,-0.187,-0.1539,-0.1631,-0.1626,-0.1533,0,0,0,0,0,0,-0.0473,-0.046,-0.0441,-0.0274,-0.0224,-0.0289,-0.0454,-0.077,-0.0889,-0.1334,-0.1369,-0.171,-0.1738,-0.1961,-0.1816,-0.1828,-0.1558,-0.2009,-0.2002,-0.1633,-0.1629,-0.1625,-0.1528,0,0,0,0,0]},{"header":{"parameterUnit":"m.s-1","parameterCategory":2,"la1":30.2991,"la2":30.254,"lo1":-89.0895,"lo2":-89.0444,"dy":0.0017,"dx":0.0017,"nx":28,"ny":28,"refTime":"2024-02-03T09:00:00:Z","depth":"4","parameterNumber":3,"parameterNumberName":"V-component_of_CURRENTS"},"data":[0,0,0,0,0,0,0,0,0,0,0,0,0,0,0,0,0,0,0,0,0,0,0,0,0,0,0,0,0,0,0,0,0,0,0,0,0,0,0,0,0,0,0,0,0,0,0,0,0,0,0,0,0,0,0,0,0,0,-0.0487,-0.0486,0,-0.0325,-0.0323,-0.0321,-0.0281,-0.0283,-0.0284,-0.0285,-0.0216,-0.0213,-0.021,0,0,0,0,0,0,0,0,0,0,0,0,0,-0.0642,-0.064,-0.0487,-0.0485,-0.0484,-0.0325,-0.0323,-0.032,-0.0281,-0.0283,-0.0284,-0.0285,-0.0217,-0.0213,-0.021,0,0,0,0,0,0,0,0,0,0,0,0,0,-0.0536,-0.0639,-0.0488,-0.0446,-0.0441,-0.0325,-0.0322,-0.032,-0.0281,-0.0283,-0.0284,-0.0286,-0.0218,-0.0214,-0.0209,-0.0146,0,0,-0.0196,-0.0194,0,0,0,0,0,0,0,0,-0.0542,-0.053,-0.0454,-0.0449,-0.0442,-0.0326,-0.0351,-0.0267,-0.028,-0.034,-0.0285,-0.0287,-0.0261,-0.0253,-0.0215,-0.0143,-0.014,-0.0195,-0.0193,-0.0191,-0.019,0,0,0,0,0,0,0,-0.055,-0.0536,-0.0422,-0.0452,-0.0445,-0.0393,-0.0381,-0.0334,-0.0293,-0.0335,-0.0332,-0.0315,-0.0258,-0.022,-0.0214,-0.0139,-0.0195,-0.0192,-0.0189,-0.0187,0.0019,0.0022,0,0,0,0,0,0,-0.0576,-0.0543,-0.0427,-0.0417,-0.0499,-0.039,-0.0376,-0.0361,-0.0292,-0.0282,-0.0314,-0.0314,-0.0226,-0.0219,-0.0211,-0.0102,-0.0191,-0.0187,-0.0184,0.0016,0.002,0.0023,0,0,0,0,0,0,-0.058,-0.0567,-0.0434,-0.0477,-0.0457,-0.0386,-0.0368,-0.0357,-0.0324,-0.0275,-0.0268,-0.0295,-0.0227,-0.0218,-0.0148,-0.0101,-0.0185,-0.0181,0.0013,0.0017,0.0021,0.0097,0,0,0,0,0,0,-0.0585,-0.057,-0.0575,-0.0479,-0.0456,-0.0353,-0.0366,-0.0352,-0.0311,-0.031,-0.0256,-0.0251,-0.0228,-0.0154,-0.0143,-0.0096,-0.0177,0.001,0.0015,0.002,0.0091,0.0103,0.0114,0,0,0,0,0,-0.0591,-0.0577,-0.0576,-0.0562,-0.0463,-0.0351,-0.0332,-0.0288,-0.0309,-0.0271,-0.0235,-0.0253,-0.0114,-0.0148,-0.0136,-0.0086,0.0007,0.0013,0.002,0.0086,0.0101,0.0113,0,0,0,0,0,0,-0.0656,-0.0569,-0.0566,-0.0532,-0.0449,-0.0345,-0.0309,-0.0288,-0.0227,-0.0234,-0.021,-0.0199,-0.012,-0.011,-0.0149,-0.001,-0.0058,-0.0049,-0.0012,0.0002,0.0013,-0.0037,-0.0174,0,0,0,0,0,-0.0673,-0.0635,-0.0545,-0.0517,-0.0475,-0.0398,-0.0355,-0.0316,-0.0247,-0.0223,-0.0177,-0.0133,-0.0078,-0.0049,0.0005,0.0082,0.0052,0.0121,0.0132,0.0142,0.0111,0.0121,0.0129,0.0044,0.0044,0.0044,0,0,-0.0694,-0.064,-0.0623,-0.0527,-0.0462,-0.0381,-0.0375,-0.0293,-0.0232,-0.0225,-0.0131,-0.0089,-0.0049,0.0047,0.0081,0.0056,0.0158,0.015,0.0157,0.012,0.0128,0.0136,0.0142,0.0048,0.0047,0.0047,0,0,-0.0683,-0.066,-0.0612,-0.0538,-0.0434,-0.0372,-0.0353,-0.0235,-0.0192,-0.009,-0.0075,-0.0011,0.0088,0.0131,0.0158,0.026,0.0218,0.0286,0.0305,0.0317,0.0323,0.0327,0.0322,0.0325,0.0292,0.0292,0.0292,0,-0.0716,-0.0658,-0.0579,-0.0502,-0.0459,-0.0372,-0.0313,-0.0226,-0.0102,-0.0077,-0.0055,0.0079,0.0125,0.0202,0.0251,0.0283,0.027,0.0249,0.0328,0.0332,0.0335,0.0328,0.033,0.0296,0.0296,0.0295,0.0295,0,-0.0648,-0.0615,-0.0572,-0.046,-0.0387,-0.0321,-0.0201,-0.0127,-0.0074,-0.0007,0.0089,0.0175,0.0229,0.0286,0.0304,0.0363,0.0341,0.0339,0.0281,0.0347,0.0337,0.0338,0.0303,0.0301,0.03,0.0299,0,0,-0.0695,-0.0564,-0.0551,-0.054,-0.0378,-0.0326,-0.0203,-0.0102,-0.0071,0.0075,0.0113,0.0256,0.0274,0.0304,0.035,0.0384,0.0427,0.0373,0.0372,0.0346,0.0437,0.0425,0.0424,0.0436,0.0436,0.0436,0.0427,0,-0.0682,-0.0611,-0.0511,-0.0449,-0.0422,-0.0307,-0.022,-0.0113,-0.0015,0.0065,0.0162,0.0235,0.0293,0.0317,0.0366,0.0408,0.043,0.0428,0.0393,0.0391,0.0355,0.0425,0.0437,0.0428,0.0428,0.0428,0.0428,0,-0.0643,-0.0624,-0.0585,-0.0529,-0.05,-0.0434,-0.0345,-0.0249,-0.0098,-0.0024,0.0079,0.0164,0.0264,0.0292,0.0381,0.0376,0.0397,0.0432,0.0432,0.038,0.038,0.0346,0.0429,0.0429,0.0429,0.0429,0.0429,0,-0.0766,-0.0674,-0.0684,-0.0652,-0.0545,-0.0519,-0.0454,-0.0303,-0.0251,-0.0089,-0.0029,0.01,0.0174,0.0229,0.0351,0.035,0.0429,0.0429,0.0433,0.0432,0.0405,0.04,0.0452,0.0452,0.0452,0.0452,0.0452,0,-0.0806,-0.0812,-0.0762,-0.0771,-0.0806,-0.066,-0.0648,-0.0542,-0.0398,-0.0342,-0.0111,-0.0022,0.0164,0.0266,0.0324,0.0397,0.0405,0.0429,0.0431,0.0444,0.0443,0.0407,0.0402,0.0451,0.0451,0.0451,0.0451,0,-0.0913,-0.0873,-0.0912,-0.087,-0.0869,-0.0896,-0.0805,-0.0792,-0.0593,-0.0505,-0.0451,-0.0132,0.0054,0.0222,0.0343,0.0368,0.0425,0.0437,0.044,0.0444,0.0415,0.0415,0.0414,0.0414,0.0413,0.0413,0.0413,0,-0.0948,-0.0987,-0.1038,-0.1104,-0.1091,-0.1105,-0.1124,-0.0947,-0.091,-0.0574,-0.056,-0.026,-0.0059,0.013,0.0308,0.0427,0.0441,0.0426,0.0424,0.041,0.0413,0.0413,0.0413,0.0412,0.0412,0.0412,0.0412,0,-0.105,-0.1083,-0.1132,-0.1281,-0.1347,-0.14,-0.1387,-0.1367,-0.1128,-0.0957,-0.0641,-0.0379,-0.0133,0.0112,0.0246,0.0319,0.0413,0.0422,0.0423,0.042,0.0407,0.041,0.0411,0.0411,0.0411,0.0411,0.0411,0,-0.1134,-0.1218,-0.1305,-0.142,-0.1542,-0.1618,-0.1599,-0.1489,-0.1388,-0.0991,-0.0903,-0.0474,-0.0203,0.0055,0.0156,0.0272,0.0276,0.0225,0.0235,0.0239,0.0213,0.0173,0.01,0,0,0,0,0,-0.1194,-0.1286,-0.1426,-0.1537,-0.1662,-0.1699,-0.1731,-0.167,-0.1454,-0.1285,-0.1065,-0.0803,-0.0402,-0.017,-0.0069,0.0074,0.0228,0.0183,0.0152,0.0403,0.0405,0.0407,0,0,0,0,0,0,-0.1239,-0.1372,-0.1436,-0.1597,-0.1674,-0.1778,-0.1803,-0.1673,-0.1553,-0.1289,-0.1074,-0.0823,-0.0457,-0.0433,-0.0054,0.0002,-0.003,0.042,0.0419,0.0403,0.0404,0.0405,0.0408,0,0,0,0,0]}]]